Hourly Data Report for October 10, 2015

All times are specified in Local Standard Time (LST). Add 1 hour to adjust for Daylight Saving Time where and when it is observed.

PETAWAWA AWOS 2
ONTARIO

45°57'00.000" N
77°19'00.000" W
130.10 m
6106396
71625
YWA

Download Data

Hourly Data (October 2015)
Hourly Data Report for October 10, 2015
Temp Definition
°C
Dew Point Temp Definition
°C
Rel Hum Definition
%
Wind Dir Definition
10's deg

Wind Spd Definition
km/h
Visibility Definition
km
Stn Press Definition
kPa
Hmdx Definition


Wind Chill Definition


Weather Definition


TIME
00:00 4.5 0.5 75 32 17 14.5 100.43     LegendNANA
01:00 3.6 -0.1 77 34 15 14.5 100.47     LegendNANA
02:00 2.8 0.4 84 31 13 14.5 100.52     LegendNANA
03:00 1.2 -0.5 88 26 4 14.5 100.56     LegendNANA
04:00 1.0 -0.5 90 27 4 14.5 100.54     LegendNANA
05:00 -0.3 -1.3 93 27 6 14.5 100.59   -2 LegendNANA
06:00 -0.1 -1.2 92 28 4 14.5 100.63   -1 LegendNANA
07:00 -1.0 -1.7 95 27 6 14.5 100.69   -3 LegendNANA
08:00 1.9 0.3 89 29 6 14.5 100.72     LegendNANA
09:00 3.8 0.2 77 27 7 14.5 100.71     LegendNANA
10:00 6.0 0.9 70 32 4 14.5 100.61     LegendNANA
11:00 7.3 -0.5 58 28 6 14.5 100.54     LegendNANA
12:00 8.8 0.5 56 28 7 14.5 100.44     LegendNANA
13:00 10.4 -1.1 45 25 11 14.5 100.29     LegendNANA
14:00 11.0 -1.3 42 32 7 14.5 100.17     LegendNANA
15:00 11.8 -0.4 43 24 7 14.5 100.05     LegendNANA
16:00 12.3 0.5 44 19 6 14.5 99.92     LegendNANA
17:00 10.9 2.5 56 18 6 14.5 99.86     LegendNANA
18:00 9.5 2.9 63 22 4 14.5 99.84     LegendNANA
19:00 7.5 4.0 78 20 6 14.5 99.78     LegendNANA
20:00 9.2 3.2 66 17 9 14.5 99.68     LegendNANA
21:00 8.9 3.9 71 17 9 14.5 99.66     LegendNANA
22:00 9.4 4.4 71 16 9 14.5 99.59     LegendNANA
23:00 9.1 5.3 77 15 9 14.5 99.50     LegendNANA

Notes on Data Quality.

Legend

  • E = Estimated
  • M = Missing
  • NA = Not Available
  • ‡ = Partner data that is not subject to review by the National Climate Archives
Date modified: